TimeEDT,TemperatureF,Dew PointF,Humidity,Sea Level PressureIn,VisibilityMPH,Wind Direction,Wind SpeedMPH,Gust SpeedMPH,PrecipitationIn,Events,Conditions,WindDirDegrees,DateUTC
12:54 AM,72.0,66.9,84,30.03,10.0,Calm,Calm,-,N/A,,Overcast,0,2013-08-12 04:54:00
1:54 AM,69.1,66.9,93,30.02,10.0,South,3.5,-,N/A,,Scattered Clouds,180,2013-08-12 05:54:00
2:43 AM,69.8,66.2,88,30.03,10.0,Calm,Calm,-,N/A,,Scattered Clouds,0,2013-08-12 06:43:00
2:52 AM,69.8,66.2,88,30.03,10.0,Calm,Calm,-,N/A,,Mostly Cloudy,0,2013-08-12 06:52:00
2:54 AM,69.1,66.9,93,30.02,10.0,Calm,Calm,-,N/A,,Mostly Cloudy,0,2013-08-12 06:54:00
3:54 AM,70.0,66.9,90,30.00,10.0,Calm,Calm,-,N/A,,Overcast,0,2013-08-12 07:54:00
4:51 AM,69.8,68.0,94,30.01,10.0,Calm,Calm,-,N/A,,Overcast,0,2013-08-12 08:51:00
4:54 AM,69.1,68.0,96,29.99,10.0,Calm,Calm,-,N/A,,Overcast,0,2013-08-12 08:54:00
5:54 AM,68.0,68.0,100,30.01,8.0,Calm,Calm,-,N/A,,Mostly Cloudy,0,2013-08-12 09:54:00
6:45 AM,69.8,68.0,94,30.02,7.0,NE,3.5,-,N/A,,Mostly Cloudy,50,2013-08-12 10:45:00
6:54 AM,69.1,68.0,96,30.01,9.0,NNE,3.5,-,N/A,,Overcast,30,2013-08-12 10:54:00
7:49 AM,71.6,68.0,88,30.02,10.0,Calm,Calm,-,N/A,,Overcast,0,2013-08-12 11:49:00
7:54 AM,71.1,68.0,90,30.02,10.0,Calm,Calm,-,N/A,,Overcast,0,2013-08-12 11:54:00
8:04 AM,71.6,68.0,88,30.03,10.0,NE,3.5,-,N/A,,Overcast,40,2013-08-12 12:04:00
8:15 AM,69.8,66.2,88,30.03,10.0,Calm,Calm,-,N/A,,Overcast,0,2013-08-12 12:15:00
8:22 AM,71.6,68.0,88,30.03,10.0,North,3.5,-,N/A,,Overcast,360,2013-08-12 12:22:00
8:36 AM,71.6,68.0,88,30.04,10.0,North,4.6,-,N/A,,Overcast,10,2013-08-12 12:36:00
8:54 AM,72.0,68.0,87,30.02,10.0,NNE,5.8,-,N/A,,Overcast,20,2013-08-12 12:54:00
9:20 AM,71.6,66.2,83,30.02,10.0,NNE,8.1,-,N/A,,Mostly Cloudy,20,2013-08-12 13:20:00
9:54 AM,71.1,66.0,84,30.02,10.0,NNE,5.8,-,N/A,,Overcast,20,2013-08-12 13:54:00
10:54 AM,73.9,64.0,71,30.02,10.0,Variable,4.6,-,N/A,,Mostly Cloudy,0,2013-08-12 14:54:00
11:54 AM,75.0,64.0,69,30.01,10.0,Variable,3.5,-,N/A,,Scattered Clouds,0,2013-08-12 15:54:00
12:54 PM,79.0,63.0,58,30.00,10.0,Variable,3.5,-,N/A,,Clear,0,2013-08-12 16:54:00
1:54 PM,79.0,64.9,62,29.99,10.0,Calm,Calm,-,N/A,,Clear,0,2013-08-12 17:54:00
2:54 PM,77.0,63.0,62,29.98,10.0,Calm,Calm,-,N/A,,Partly Cloudy,0,2013-08-12 18:54:00
3:54 PM,82.9,62.1,49,29.96,10.0,NW,6.9,-,N/A,,Partly Cloudy,320,2013-08-12 19:54:00
4:54 PM,82.9,60.1,46,29.95,10.0,Calm,Calm,-,N/A,,Clear,0,2013-08-12 20:54:00
5:54 PM,82.0,61.0,49,29.94,10.0,Calm,Calm,-,N/A,,Clear,0,2013-08-12 21:54:00
6:54 PM,78.1,64.0,62,29.94,10.0,Calm,Calm,-,N/A,,Clear,0,2013-08-12 22:54:00
7:54 PM,73.0,66.0,79,29.94,10.0,Calm,Calm,-,N/A,,Clear,0,2013-08-12 23:54:00
8:54 PM,70.0,64.9,84,29.94,10.0,Calm,Calm,-,N/A,,Clear,0,2013-08-13 00:54:00
9:54 PM,69.1,64.9,87,29.94,10.0,Calm,Calm,-,N/A,,Clear,0,2013-08-13 01:54:00
10:54 PM,71.1,66.0,84,29.93,10.0,South,3.5,-,N/A,,Clear,170,2013-08-13 02:54:00
11:54 PM,68.0,66.9,96,29.93,10.0,Calm,Calm,-,N/A,,Clear,0,2013-08-13 03:54:00